Terug naar catalogus

STARLINK-5237

ActiefCommunicatieVLEO
NORAD 54196·PAYLOAD·🇺🇸 United States

Gelanceerd Oct 28, 2022 vanaf Vandenberg Space Force Base

Loading…

Volgende Passages (komende 24 uur)

TLE

VersSource: CelesTrak SupGP

Epoch: Sep 14, 2026, 22:02 UTC

1 54196C 22141AR  26257.91854167 -.00003170  00000+0 -90663-4 0  2575
2 54196  53.1580 214.0306 0001402  93.7254  37.1432 15.35414271    16

Volg STARLINK-5237 in realtime met AllMySat

Download on the App Store